User: anonymous
Location: B
(0.0000°N, 0.0000°E)
Time: 20:50:18
(UTC+02:00)
Language:

Cosmos 1025 Rocket - Orbit

View from above orbital plane
View from above orbital plane
View from above satellite
View from above satellite

Ground track
Ground track

The orbit data is extracted from the following two-line orbital elements,

1 10974U 78067B   14210.16471398  .00000250  00000-0  25440-4 0  3570
2 10974 082.4814 087.1347 0016676 231.0229 243.1704 14.86615023950938
Epoch (UTC): 29 July 2014 03:57:11
Eccentricity: 0.0016676
inclination: 82.4814°
perigee height: 597 km
apogee height: 620 km
right ascension of ascending node: 87.1347°
argument of perigee: 231.0229°
revolutions per day: 14.86615023
mean anomaly at epoch: 243.1704°
orbit number at epoch: 95093

The dashed part of the orbit path shows where the satellite is in the earth's shadow,  

DLR